START_TIME,STEP,MOV.,H8,t_acc.,H43,t_acc.,M25,t_acc.,H9,t_acc.
1989-08-24T00:00:30.440 ,5,0,0.,12.0,0.,12.0,0.,12.0,0.,12.0
1989-08-24T00:00:42.440 ,5,0,0.,12.0,0.,12.0,0.,12.0,0.,12.0
1989-08-24T00:00:54.440 ,4,0,0.,12.0,0.,12.0,0.,12.0,0.,12.0
1989-08-24T00:01:06.440 ,4,0,0.,12.0,0.,12.0,0.,12.0,0.,12.0
1989-08-24T00:01:18.440 ,4,0,0.,12.0,0.,12.0,0.,12.0,0.,12.0
1989-08-24T00:01:30.440 ,4,0,0.,12.0,0.,12.0,0.,12.0,0.,12.0
1989-08-24T00:01:42.440 ,3,0,0.,12.0,0.,12.0,0.,12.0,0.,12.0
1989-08-24T00:01:54.440 ,3,0,0.,12.0,0.,12.0,0.,12.0,0.,12.0
1989-08-24T00:02:06.440 ,3,0,0.,12.0,0.,12.0,0.,12.0,0.,12.0
1989-08-24T00:02:18.440 ,3,0,0.,12.0,0.,12.0,0.,12.0,0.,12.0
1989-08-24T00:02:30.440 ,2,0,0.,12.0,0.,12.0,0.,12.0,0.,12.0
1989-08-24T00:02:42.440 ,2,0,0.,12.0,0.,12.0,0.,12.0,0.,12.0
1989-08-24T00:02:54.440 ,2,0,0.,12.0,0.,12.0,0.,12.0,0.,12.0
1989-08-24T00:03:06.440 ,2,0,0.,12.0,0.,12.0,0.,12.0,0.,12.0
1989-08-24T00:03:18.440 ,1,0,0.,12.0,0.,12.0,0.,12.0,0.,12.0
1989-08-24T00:03:30.440 ,1,0,0.,12.0,0.,12.0,0.,12.0,0.,12.0
1989-08-24T00:03:42.440 ,1,0,0.,12.0,0.,12.0,0.,12.0,0.,12.0
1989-08-24T00:03:54.440 ,1,0,0.,12.0,0.,12.0,0.,12.0,0.,12.0
1989-08-24T00:04:06.440 ,0,0,0.,12.0,0.,12.0,0.,12.0,0.,12.0
1989-08-24T00:04:18.440 ,0,0,0.,12.0,0.,12.0,0.,12.0,0.,12.0
1989-08-24T00:04:30.440 ,0,0,0.,12.0,0.,12.0,0.,12.0,0.,12.0
1989-08-24T00:04:42.440 ,0,0,0.,12.0,0.,12.0,0.,12.0,0.,12.0
1989-08-24T00:04:54.440 ,0,0,0.,12.0,0.,12.0,0.,12.0,0.,12.0
1989-08-24T00:05:06.440 ,0,0,0.,12.0,0.,12.0,0.,12.0,0.,12.0
1989-08-24T00:05:18.440 ,0,0,0.,12.0,0.,12.0,0.,12.0,0.,12.0
1989-08-24T00:05:30.440 ,0,0,0.,12.0,0.,12.0,0.,12.0,0.,12.0
1989-08-24T00:05:42.440 ,1,0,0.,12.0,0.,12.0,0.,12.0,0.,12.0
1989-08-24T00:05:54.440 ,1,0,0.,12.0,0.,12.0,0.,12.0,0.,12.0
1989-08-24T00:06:06.440 ,1,0,0.,12.0,0.,12.0,0.,12.0,0.,12.0
1989-08-24T00:06:18.440 ,1,0,0.,12.0,0.,12.0,0.,12.0,0.,12.0
1989-08-24T00:06:30.440 ,2,0,0.,12.0,0.,12.0,0.,12.0,0.,12.0
1989-08-24T00:06:42.440 ,2,0,0.,12.0,0.,12.0,0.,12.0,0.,12.0
1989-08-24T00:06:54.440 ,2,0,0.,12.0,0.,12.0,0.,12.0,0.,12.0
1989-08-24T00:07:06.440 ,2,0,0.,12.0,0.,12.0,0.,12.0,0.,12.0
1989-08-24T00:07:18.440 ,3,0,0.,12.0,0.,12.0,0.,12.0,0.,12.0
1989-08-24T00:07:30.440 ,3,0,0.,12.0,0.,12.0,0.,12.0,0.,12.0
1989-08-24T00:07:42.440 ,3,0,0.,12.0,0.,12.0,0.,12.0,0.,12.0
1989-08-24T00:07:54.440 ,3,0,0.,12.0,0.,12.0,0.,12.0,0.,12.0
1989-08-24T00:08:06.440 ,4,0,0.,12.0,0.,12.0,0.,12.0,0.,12.0
1989-08-24T00:08:18.440 ,4,0,0.,12.0,0.,12.0,0.,12.0,0.,12.0
1989-08-24T00:08:30.440 ,4,0,0.,12.0,0.,12.0,0.,12.0,0.,12.0
1989-08-24T00:08:42.440 ,4,0,0.,12.0,0.,12.0,0.,12.0,0.,12.0
1989-08-24T00:08:54.440 ,5,0,0.,12.0,0.,12.0,0.,12.0,0.,12.0
1989-08-24T00:09:06.440 ,5,0,0.,12.0,0.,12.0,0.,12.0,0.,12.0
1989-08-24T00:09:18.440 ,5,0,0.,12.0,0.,12.0,0.,12.0,0.,12.0
1989-08-24T00:09:30.440 ,5,0,0.,12.0,0.,12.0,0.,12.0,0.,12.0
1989-08-24T00:09:42.440 ,6,0,0.,12.0,0.,12.0,0.,12.0,0.,12.0
1989-08-24T00:09:54.440 ,6,0,0.,12.0,0.,12.0,0.,12.0,0.,12.0
1989-08-24T00:10:06.440 ,6,0,0.,12.0,0.,12.0,0.,12.0,0.,12.0
1989-08-24T00:10:18.440 ,6,0,0.,12.0,0.,12.0,0.,12.0,0.,12.0
1989-08-24T00:10:30.440 ,7,0,0.,12.0,0.,12.0,0.,12.0,0.,12.0
1989-08-24T00:10:42.440 ,7,0,0.,12.0,0.,12.0,0.,12.0,0.,12.0
1989-08-24T00:10:54.440 ,7,0,0.,12.0,0.,12.0,0.,12.0,0.,12.0
1989-08-24T00:11:06.440 ,7,0,0.,12.0,0.,12.0,0.,12.0,0.,12.0
1989-08-24T00:11:18.440 ,7,0,0.,12.0,0.,12.0,0.,12.0,0.,12.0
1989-08-24T00:11:30.440 ,7,0,0.,12.0,0.,12.0,0.,12.0,0.,12.0
1989-08-24T00:11:42.440 ,7,0,0.,12.0,0.,12.0,0.,12.0,0.,12.0
1989-08-24T00:11:54.440 ,7,0,0.,12.0,0.,12.0,0.,12.0,0.,12.0
1989-08-24T00:12:06.440 ,6,0,0.,12.0,0.,12.0,0.,12.0,0.,12.0
1989-08-24T00:12:18.440 ,6,0,0.,12.0,0.,12.0,0.,12.0,0.,12.0
1989-08-24T00:12:30.440 ,6,0,0.,12.0,0.,12.0,0.,12.0,0.,12.0
1989-08-24T00:12:42.440 ,6,0,0.,12.0,0.,12.0,0.,12.0,0.,12.0
1989-08-24T00:12:54.440 ,5,0,0.,12.0,0.,12.0,0.,12.0,0.,12.0
1989-08-24T00:13:06.440 ,5,0,0.,12.0,0.,12.0,0.,12.0,0.,12.0
1989-08-24T00:13:18.440 ,5,0,0.,12.0,0.,12.0,0.,12.0,0.,12.0
1989-08-24T00:13:30.440 ,5,0,0.,12.0,0.,12.0,0.,12.0,0.,12.0
1989-08-24T00:13:42.440 ,4,0,0.,12.0,0.,12.0,0.,12.0,0.,12.0
1989-08-24T00:13:54.440 ,4,0,0.,12.0,0.,12.0,0.,12.0,0.,12.0
1989-08-24T00:14:06.440 ,4,0,0.,12.0,0.,12.0,0.,12.0,0.,12.0
1989-08-24T00:14:18.440 ,4,0,0.,12.0,0.,12.0,0.,12.0,0.,12.0
1989-08-24T00:14:30.440 ,3,0,0.,12.0,0.,12.0,0.,12.0,0.,12.0
1989-08-24T00:14:42.440 ,3,0,0.,12.0,0.,12.0,0.,12.0,0.,12.0
1989-08-24T00:14:54.440 ,3,0,0.,12.0,0.,12.0,0.,12.0,0.,12.0
1989-08-24T00:15:06.440 ,3,0,0.,12.0,0.,12.0,0.,12.0,0.,12.0
1989-08-24T00:15:18.440 ,2,0,0.,12.0,0.,12.0,0.,12.0,0.,12.0
1989-08-24T00:15:30.440 ,2,0,0.,12.0,0.,12.0,0.,12.0,0.,12.0
1989-08-24T00:15:42.440 ,2,0,0.,12.0,0.,12.0,0.,12.0,0.,12.0
1989-08-24T00:15:54.440 ,2,0,0.,12.0,0.,12.0,0.,12.0,0.,12.0
1989-08-24T00:16:06.440 ,1,0,0.,12.0,0.,12.0,0.,12.0,0.,12.0
1989-08-24T00:16:18.440 ,1,0,0.,12.0,0.,12.0,0.,12.0,0.,12.0
1989-08-24T00:16:30.440 ,1,0,0.,12.0,0.,12.0,0.,12.0,0.,12.0
1989-08-24T00:16:42.440 ,1,0,0.,12.0,0.,12.0,0.,12.0,0.,12.0
1989-08-24T00:16:54.440 ,0,0,0.,12.0,0.,12.0,0.,12.0,0.,12.0
1989-08-24T00:17:06.440 ,0,0,0.,12.0,0.,12.0,0.,12.0,0.,12.0
1989-08-24T00:17:18.440 ,0,0,0.,12.0,0.,12.0,0.,12.0,0.,12.0
1989-08-24T00:17:30.440 ,0,0,0.,12.0,0.,12.0,0.,12.0,0.,12.0
1989-08-24T00:17:42.440 ,0,0,0.,12.0,0.,12.0,0.,12.0,0.,12.0
1989-08-24T00:17:54.440 ,0,0,0.,12.0,0.,12.0,0.,12.0,0.,12.0
1989-08-24T00:18:06.440 ,0,0,0.,12.0,0.,12.0,0.,12.0,0.,12.0
1989-08-24T00:18:18.440 ,0,0,0.,12.0,0.,12.0,0.,12.0,0.,12.0
1989-08-24T00:18:30.440 ,1,0,0.,12.0,0.,12.0,0.,12.0,0.,12.0
1989-08-24T00:18:42.440 ,1,0,0.,12.0,0.,12.0,0.,12.0,0.,12.0
1989-08-24T00:18:54.440 ,1,0,0.,12.0,0.,12.0,0.,12.0,0.,12.0
1989-08-24T00:19:06.440 ,1,0,0.,12.0,0.,12.0,0.,12.0,0.,12.0
1989-08-24T00:19:18.440 ,2,0,0.,12.0,0.,12.0,0.,12.0,0.,12.0
1989-08-24T00:19:30.440 ,2,0,0.,12.0,0.,12.0,0.,12.0,0.,12.0
1989-08-24T00:19:42.440 ,2,0,0.,12.0,0.,12.0,0.,12.0,0.,12.0
1989-08-24T00:19:54.440 ,2,0,0.,12.0,0.,12.0,0.,12.0,0.,12.0
1989-08-24T00:20:06.440 ,3,0,0.,12.0,0.,12.0,0.,12.0,0.,12.0
1989-08-24T00:20:18.440 ,3,0,0.,12.0,0.,12.0,0.,12.0,0.,12.0
1989-08-24T00:20:30.440 ,3,0,0.,12.0,0.,12.0,0.,12.0,0.,12.0
1989-08-24T00:20:42.440 ,3,0,0.,12.0,0.,12.0,0.,12.0,0.,12.0
1989-08-24T00:20:54.440 ,4,0,0.,12.0,0.,12.0,0.,12.0,0.,12.0
1989-08-24T00:21:06.440 ,4,0,0.,12.0,0.,12.0,0.,12.0,0.,12.0
1989-08-24T00:21:18.440 ,4,0,0.,12.0,0.,12.0,0.,12.0,0.,12.0
1989-08-24T00:21:30.440 ,4,0,0.,12.0,0.,12.0,0.,12.0,0.,12.0
1989-08-24T00:21:42.440 ,5,0,0.,12.0,0.,12.0,0.,12.0,0.,12.0
1989-08-24T00:21:54.440 ,5,0,0.,12.0,0.,12.0,0.,12.0,0.,12.0
1989-08-24T00:22:06.440 ,5,0,0.,12.0,0.,12.0,0.,12.0,0.,12.0
1989-08-24T00:22:18.440 ,5,0,0.,12.0,0.,12.0,0.,12.0,0.,12.0
1989-08-24T00:22:30.440 ,6,0,0.,12.0,0.,12.0,0.,12.0,0.,12.0
1989-08-24T00:22:42.440 ,6,0,0.,12.0,0.,12.0,0.,12.0,0.,12.0
1989-08-24T00:22:54.440 ,6,0,0.,12.0,0.,12.0,0.,12.0,0.,12.0
1989-08-24T00:23:06.440 ,6,0,0.,12.0,0.,12.0,0.,12.0,0.,12.0
1989-08-24T00:23:18.440 ,7,0,0.,12.0,0.,12.0,0.,12.0,0.,12.0
1989-08-24T00:23:30.440 ,7,0,0.,12.0,0.,12.0,0.,12.0,0.,12.0
1989-08-24T00:23:42.440 ,7,0,0.,12.0,0.,12.0,0.,12.0,0.,12.0
1989-08-24T00:23:54.440 ,7,0,0.,12.0,0.,12.0,0.,12.0,0.,12.0
1989-08-24T00:24:06.440 ,7,0,0.,12.0,0.,12.0,0.,12.0,0.,12.0
1989-08-24T00:24:18.440 ,7,0,0.,12.0,0.,12.0,0.,12.0,0.,12.0
1989-08-24T00:24:30.440 ,7,0,0.,12.0,0.,12.0,0.,12.0,0.,12.0
1989-08-24T00:24:42.440 ,7,0,0.,12.0,0.,12.0,0.,12.0,0.,12.0
1989-08-24T00:24:54.440 ,6,0,0.,12.0,0.,12.0,0.,12.0,0.,12.0
1989-08-24T00:25:06.440 ,6,0,0.,12.0,0.,12.0,0.,12.0,0.,12.0
1989-08-24T00:25:18.440 ,6,0,0.,12.0,0.,12.0,0.,12.0,0.,12.0
1989-08-24T00:25:30.440 ,6,0,0.,12.0,0.,12.0,0.,12.0,0.,12.0
1989-08-24T00:25:42.440 ,5,0,0.,12.0,0.,12.0,0.,12.0,0.,12.0
1989-08-24T00:25:54.440 ,5,0,0.,12.0,0.,12.0,0.,12.0,0.,12.0
1989-08-24T00:26:06.440 ,5,0,0.,12.0,0.,12.0,0.,12.0,0.,12.0
1989-08-24T00:26:18.440 ,5,0,0.,12.0,0.,12.0,0.,12.0,0.,12.0
1989-08-24T00:26:30.440 ,4,0,0.,12.0,0.,12.0,0.,12.0,0.,12.0
1989-08-24T00:26:42.440 ,4,0,0.,12.0,0.,12.0,0.,12.0,0.,12.0
1989-08-24T00:26:54.440 ,4,0,0.,12.0,0.,12.0,0.,12.0,0.,12.0
1989-08-24T00:27:06.440 ,4,0,0.,12.0,0.,12.0,0.,12.0,0.,12.0
1989-08-24T00:27:18.440 ,3,0,0.,12.0,0.,12.0,0.,12.0,0.,12.0
1989-08-24T00:27:30.440 ,3,0,0.,12.0,0.,12.0,0.,12.0,0.,12.0
1989-08-24T00:27:42.440 ,3,0,0.,12.0,0.,12.0,0.,12.0,0.,12.0
1989-08-24T00:27:54.440 ,3,0,0.,12.0,0.,12.0,0.,12.0,0.,12.0
1989-08-24T00:28:06.440 ,2,0,0.,12.0,0.,12.0,0.,12.0,0.,12.0
1989-08-24T00:28:18.440 ,2,0,0.,12.0,0.,12.0,0.,12.0,0.,12.0
1989-08-24T00:28:30.440 ,2,0,0.,12.0,0.,12.0,0.,12.0,0.,12.0
1989-08-24T00:28:42.440 ,2,0,0.,12.0,0.,12.0,0.,12.0,0.,12.0
1989-08-24T00:28:54.440 ,1,0,0.,12.0,0.,12.0,0.,12.0,0.,12.0
1989-08-24T00:29:06.440 ,1,0,0.,12.0,0.,12.0,0.,12.0,0.,12.0
1989-08-24T00:29:18.440 ,1,0,0.,12.0,0.,12.0,0.,12.0,0.,12.0
1989-08-24T00:29:30.440 ,1,0,0.,12.0,0.,12.0,0.,12.0,0.,12.0
1989-08-24T00:29:42.440 ,0,0,0.,12.0,0.,12.0,0.,12.0,0.,12.0
1989-08-24T00:29:54.440 ,0,0,0.,12.0,0.,12.0,0.,12.0,0.,12.0
1989-08-24T00:30:06.440 ,0,0,0.,12.0,0.,12.0,0.,12.0,0.,12.0
1989-08-24T00:30:18.440 ,0,0,0.,12.0,0.,12.0,0.,12.0,0.,12.0
1989-08-24T00:30:30.440 ,0,0,0.,12.0,0.,12.0,0.,12.0,0.,12.0
1989-08-24T00:30:42.440 ,0,0,0.,12.0,0.,12.0,0.,12.0,0.,12.0
1989-08-24T00:30:54.440 ,0,0,0.,12.0,0.,12.0,0.,12.0,0.,12.0
1989-08-24T00:31:06.440 ,0,0,0.,12.0,0.,12.0,0.,12.0,0.,12.0
1989-08-24T00:31:18.440 ,1,0,0.,12.0,0.,12.0,0.,12.0,0.,12.0
1989-08-24T00:31:30.440 ,1,0,0.,12.0,0.,12.0,0.,12.0,0.,12.0
1989-08-24T00:31:42.440 ,1,0,0.,12.0,0.,12.0,0.,12.0,0.,12.0
1989-08-24T00:31:54.440 ,1,0,0.,12.0,0.,12.0,0.,12.0,0.,12.0
1989-08-24T00:32:06.440 ,2,0,0.,12.0,0.,12.0,0.,12.0,0.,12.0
1989-08-24T00:32:18.440 ,2,0,0.,12.0,0.,12.0,0.,12.0,0.,12.0
1989-08-24T00:32:30.440 ,2,0,0.,12.0,0.,12.0,0.,12.0,0.,12.0
1989-08-24T00:32:42.440 ,2,0,0.,12.0,0.,12.0,0.,12.0,0.,12.0
1989-08-24T00:32:54.440 ,3,0,0.,12.0,0.,12.0,0.,12.0,0.,12.0
1989-08-24T00:33:06.440 ,3,0,0.,12.0,0.,12.0,0.,12.0,0.,12.0
1989-08-24T00:33:18.440 ,3,0,0.,12.0,0.,12.0,0.,12.0,0.,12.0
1989-08-24T00:33:30.440 ,3,0,0.,12.0,0.,12.0,0.,12.0,0.,12.0
1989-08-24T00:33:42.440 ,4,0,0.,12.0,0.,12.0,0.,12.0,0.,12.0
1989-08-24T00:33:54.440 ,4,0,0.,12.0,0.,12.0,0.,12.0,0.,12.0
1989-08-24T00:34:06.440 ,4,0,0.,12.0,0.,12.0,0.,12.0,0.,12.0
1989-08-24T00:34:18.440 ,4,0,0.,12.0,0.,12.0,0.,12.0,0.,12.0
1989-08-24T00:34:30.440 ,5,0,0.,12.0,0.,12.0,0.,12.0,0.,12.0
1989-08-24T00:34:42.440 ,5,0,0.,12.0,0.,12.0,0.,12.0,0.,12.0
1989-08-24T00:34:54.440 ,5,0,0.,12.0,0.,12.0,0.,12.0,0.,12.0
1989-08-24T00:35:06.440 ,5,0,0.,12.0,0.,12.0,0.,12.0,0.,12.0
1989-08-24T00:35:18.440 ,6,0,0.,12.0,0.,12.0,0.,12.0,0.,12.0
1989-08-24T00:35:30.440 ,6,0,0.,12.0,0.,12.0,0.,12.0,0.,12.0
1989-08-24T00:35:42.440 ,6,0,0.,12.0,0.,12.0,0.,12.0,0.,12.0
1989-08-24T00:35:54.440 ,6,0,0.,12.0,0.,12.0,0.,12.0,0.,12.0
1989-08-24T00:36:06.440 ,7,0,0.,12.0,0.,12.0,0.,12.0,0.,12.0
1989-08-24T00:36:18.440 ,7,0,0.,12.0,0.,12.0,0.,12.0,0.,12.0
1989-08-24T00:36:30.440 ,7,0,0.,12.0,0.,12.0,0.,12.0,0.,12.0
1989-08-24T00:36:42.440 ,7,0,0.,12.0,0.,12.0,0.,12.0,0.,12.0
1989-08-24T00:36:54.440 ,7,0,0.,12.0,0.,12.0,0.,12.0,0.,12.0
1989-08-24T00:37:06.440 ,7,0,0.,12.0,0.,12.0,0.,12.0,0.,12.0
1989-08-24T00:37:18.440 ,7,0,0.,12.0,0.,12.0,0.,12.0,0.,12.0
1989-08-24T00:37:30.440 ,7,0,0.,12.0,0.,12.0,0.,12.0,0.,12.0
1989-08-24T00:37:42.440 ,6,0,0.,12.0,0.,12.0,0.,12.0,0.,12.0
1989-08-24T00:37:54.440 ,6,0,0.,12.0,0.,12.0,0.,12.0,0.,12.0
1989-08-24T00:38:06.440 ,6,0,0.,12.0,0.,12.0,0.,12.0,0.,12.0
1989-08-24T00:38:18.440 ,6,0,0.,12.0,0.,12.0,0.,12.0,0.,12.0
1989-08-24T00:38:30.440 ,5,0,0.,12.0,0.,12.0,0.,12.0,0.,12.0
1989-08-24T00:38:42.440 ,5,0,0.,12.0,0.,12.0,0.,12.0,0.,12.0
1989-08-24T00:38:54.440 ,5,0,0.,12.0,0.,12.0,0.,12.0,0.,12.0
1989-08-24T00:39:06.440 ,5,0,0.,12.0,0.,12.0,0.,12.0,0.,12.0
1989-08-24T00:39:18.440 ,4,0,0.,12.0,0.,12.0,0.,12.0,0.,12.0
1989-08-24T00:39:30.440 ,4,0,0.,12.0,0.,12.0,0.,12.0,0.,12.0
1989-08-24T00:39:42.440 ,4,0,0.,12.0,0.,12.0,0.,12.0,0.,12.0
1989-08-24T00:39:54.440 ,4,0,0.,12.0,0.,12.0,0.,12.0,0.,12.0
1989-08-24T00:40:06.440 ,3,0,0.,12.0,0.,12.0,0.,12.0,0.,12.0
1989-08-24T00:40:18.440 ,3,0,0.,12.0,0.,12.0,0.,12.0,0.,12.0
1989-08-24T00:40:30.440 ,3,0,0.,12.0,0.,12.0,0.,12.0,0.,12.0
1989-08-24T00:40:42.440 ,3,0,0.,12.0,0.,12.0,0.,12.0,0.,12.0
1989-08-24T00:40:54.440 ,2,0,0.,12.0,0.,12.0,0.,12.0,0.,12.0
1989-08-24T00:41:06.440 ,2,0,0.,12.0,0.,12.0,0.,12.0,0.,12.0
1989-08-24T00:41:18.440 ,2,0,0.,12.0,0.,12.0,0.,12.0,0.,12.0
1989-08-24T00:41:30.440 ,2,0,0.,12.0,0.,12.0,0.,12.0,0.,12.0
1989-08-24T00:41:42.440 ,1,0,0.,12.0,0.,12.0,0.,12.0,0.,12.0
1989-08-24T00:41:54.440 ,1,0,0.,12.0,0.,12.0,0.,12.0,0.,12.0
1989-08-24T00:42:06.440 ,1,0,0.,12.0,0.,12.0,0.,12.0,0.,12.0
1989-08-24T00:42:18.440 ,1,0,0.,12.0,0.,12.0,0.,12.0,0.,12.0
1989-08-24T00:42:30.440 ,0,0,0.,12.0,0.,12.0,0.,12.0,0.,12.0
1989-08-24T00:42:42.440 ,0,0,0.,12.0,0.,12.0,0.,12.0,0.,12.0
1989-08-24T00:42:54.440 ,0,0,0.,12.0,0.,12.0,0.,12.0,0.,12.0
1989-08-24T00:43:06.440 ,0,0,0.,12.0,0.,12.0,0.,12.0,0.,12.0
1989-08-24T00:43:18.440 ,0,0,0.,12.0,0.,12.0,0.,12.0,0.,12.0
1989-08-24T00:43:30.440 ,0,0,0.,12.0,0.,12.0,0.,12.0,0.,12.0
1989-08-24T00:43:42.440 ,0,0,0.,12.0,0.,12.0,0.,12.0,0.,12.0
1989-08-24T00:43:54.440 ,0,0,0.,12.0,0.,12.0,0.,12.0,0.,12.0
1989-08-24T00:44:06.440 ,1,0,0.,12.0,0.,12.0,0.,12.0,0.,12.0
1989-08-24T00:44:18.440 ,1,0,0.,12.0,0.,12.0,0.,12.0,0.,12.0
1989-08-24T00:44:30.440 ,1,0,0.,12.0,0.,12.0,0.,12.0,0.,12.0
1989-08-24T00:44:42.440 ,1,0,0.,12.0,0.,12.0,0.,12.0,0.,12.0
1989-08-24T00:44:54.440 ,2,0,0.,12.0,0.,12.0,0.,12.0,0.,12.0
1989-08-24T00:45:06.440 ,2,0,0.,12.0,0.,12.0,0.,12.0,0.,12.0
1989-08-24T00:45:18.440 ,2,0,0.,12.0,0.,12.0,0.,12.0,0.,12.0
1989-08-24T00:45:30.440 ,2,0,0.,12.0,0.,12.0,0.,12.0,0.,12.0
1989-08-24T00:45:42.440 ,3,0,0.,12.0,0.,12.0,0.,12.0,0.,12.0
1989-08-24T00:45:54.440 ,3,0,0.,12.0,0.,12.0,0.,12.0,0.,12.0
1989-08-24T00:46:06.440 ,3,0,0.,12.0,0.,12.0,0.,12.0,0.,12.0
1989-08-24T00:46:18.440 ,3,0,0.,12.0,0.,12.0,0.,12.0,0.,12.0
1989-08-24T00:46:30.440 ,4,0,0.,12.0,0.,12.0,0.,12.0,0.,12.0
1989-08-24T00:46:42.440 ,4,0,0.,12.0,0.,12.0,0.,12.0,0.,12.0
1989-08-24T00:46:54.440 ,4,0,0.,12.0,0.,12.0,0.,12.0,0.,12.0
1989-08-24T00:47:06.440 ,4,0,0.,12.0,0.,12.0,0.,12.0,0.,12.0
1989-08-24T00:47:18.440 ,5,0,0.,12.0,0.,12.0,0.,12.0,0.,12.0
1989-08-24T00:47:30.440 ,5,0,0.,12.0,0.,12.0,0.,12.0,0.,12.0
1989-08-24T00:47:42.440 ,5,0,0.,12.0,0.,12.0,0.,12.0,0.,12.0
1989-08-24T00:47:54.440 ,5,0,0.,12.0,0.,12.0,0.,12.0,0.,12.0
1989-08-24T00:48:06.440 ,6,0,0.,12.0,0.,12.0,0.,12.0,0.,12.0
1989-08-24T00:48:18.440 ,6,0,0.,12.0,0.,12.0,0.,12.0,0.,12.0
1989-08-24T00:48:30.440 ,6,0,0.,12.0,0.,12.0,0.,12.0,0.,12.0
1989-08-24T00:48:42.440 ,6,0,0.,12.0,0.,12.0,0.,12.0,0.,12.0
1989-08-24T00:48:54.440 ,7,0,0.,12.0,0.,12.0,0.,12.0,0.,12.0
1989-08-24T00:49:06.440 ,7,0,0.,12.0,0.,12.0,0.,12.0,0.,12.0
1989-08-24T00:49:18.440 ,7,0,0.,12.0,0.,12.0,0.,12.0,0.,12.0
1989-08-24T00:49:30.440 ,7,0,0.,12.0,0.,12.0,0.,12.0,0.,12.0
1989-08-24T00:49:42.440 ,7,0,0.,12.0,0.,12.0,0.,12.0,0.,12.0
1989-08-24T00:49:54.440 ,7,0,0.,12.0,0.,12.0,0.,12.0,0.,12.0
1989-08-24T00:50:06.440 ,7,0,0.,12.0,0.,12.0,0.,12.0,0.,12.0
1989-08-24T00:50:18.440 ,7,0,0.,12.0,0.,12.0,0.,12.0,0.,12.0
1989-08-24T00:50:30.440 ,6,0,0.,12.0,0.,12.0,0.,12.0,0.,12.0
1989-08-24T00:50:42.440 ,6,0,0.,12.0,0.,12.0,0.,12.0,0.,12.0
1989-08-24T00:50:54.440 ,6,0,0.,12.0,0.,12.0,0.,12.0,0.,12.0
1989-08-24T00:51:06.440 ,6,0,0.,12.0,0.,12.0,0.,12.0,0.,12.0
1989-08-24T00:51:18.440 ,5,0,0.,12.0,0.,12.0,0.,12.0,0.,12.0
1989-08-24T00:51:30.440 ,5,0,0.,12.0,0.,12.0,0.,12.0,0.,12.0
1989-08-24T00:51:42.440 ,5,0,0.,12.0,0.,12.0,0.,12.0,0.,12.0
1989-08-24T00:51:54.440 ,5,0,0.,12.0,0.,12.0,0.,12.0,0.,12.0
1989-08-24T00:52:06.440 ,4,0,0.,12.0,0.,12.0,0.,12.0,0.,12.0
1989-08-24T00:52:18.440 ,4,0,0.,12.0,0.,12.0,0.,12.0,0.,12.0
1989-08-24T00:52:30.440 ,4,0,0.,12.0,0.,12.0,0.,12.0,0.,12.0
1989-08-24T00:52:42.440 ,4,0,0.,12.0,0.,12.0,0.,12.0,0.,12.0
1989-08-24T00:52:54.440 ,3,0,0.,12.0,0.,12.0,0.,12.0,0.,12.0
1989-08-24T00:53:06.440 ,3,0,0.,12.0,0.,12.0,0.,12.0,0.,12.0
1989-08-24T00:53:18.440 ,3,0,0.,12.0,0.,12.0,0.,12.0,0.,12.0
1989-08-24T00:53:30.440 ,3,0,0.,12.0,0.,12.0,0.,12.0,0.,12.0
1989-08-24T00:53:42.440 ,2,0,0.,12.0,0.,12.0,0.,12.0,0.,12.0
1989-08-24T00:53:54.440 ,2,0,0.,12.0,0.,12.0,0.,12.0,0.,12.0
1989-08-24T00:54:06.440 ,2,0,0.,12.0,0.,12.0,0.,12.0,0.,12.0
1989-08-24T00:54:18.440 ,2,0,0.,12.0,0.,12.0,0.,12.0,0.,12.0
1989-08-24T00:54:30.440 ,1,0,0.,12.0,0.,12.0,0.,12.0,0.,12.0
1989-08-24T00:54:42.440 ,1,0,0.,12.0,0.,12.0,0.,12.0,0.,12.0
1989-08-24T00:54:54.440 ,1,0,0.,12.0,0.,12.0,0.,12.0,0.,12.0
1989-08-24T00:55:06.440 ,1,0,0.,12.0,0.,12.0,0.,12.0,0.,12.0
1989-08-24T00:55:18.440 ,0,0,0.,12.0,0.,12.0,0.,12.0,0.,12.0
1989-08-24T00:55:30.440 ,0,0,0.,12.0,0.,12.0,0.,12.0,0.,12.0
1989-08-24T00:55:42.440 ,0,0,0.,12.0,0.,12.0,0.,12.0,0.,12.0
1989-08-24T00:55:54.440 ,0,0,0.,12.0,0.,12.0,0.,12.0,0.,12.0
1989-08-24T00:56:06.440 ,0,0,0.,12.0,0.,12.0,0.,12.0,0.,12.0
1989-08-24T00:56:18.440 ,0,0,0.,12.0,0.,12.0,0.,12.0,0.,12.0
1989-08-24T00:56:30.440 ,0,0,0.,12.0,0.,12.0,0.,12.0,0.,12.0
1989-08-24T00:56:42.440 ,0,0,0.,12.0,0.,12.0,0.,12.0,0.,12.0
1989-08-24T00:56:54.440 ,1,0,0.,12.0,0.,12.0,0.,12.0,0.,12.0
1989-08-24T00:57:06.440 ,1,0,0.,12.0,0.,12.0,0.,12.0,0.,12.0
1989-08-24T00:57:18.440 ,1,0,0.,12.0,0.,12.0,0.,12.0,0.,12.0
1989-08-24T00:57:30.440 ,1,0,0.,12.0,0.,12.0,0.,12.0,0.,12.0
1989-08-24T00:57:42.440 ,2,0,0.,12.0,0.,12.0,0.,12.0,0.,12.0
1989-08-24T00:57:54.440 ,2,0,0.,12.0,0.,12.0,0.,12.0,0.,12.0
1989-08-24T00:58:06.440 ,2,0,0.,12.0,0.,12.0,0.,12.0,0.,12.0
1989-08-24T00:58:18.440 ,2,0,0.,12.0,0.,12.0,0.,12.0,0.,12.0
1989-08-24T00:58:30.440 ,3,0,0.,12.0,0.,12.0,0.,12.0,0.,12.0
1989-08-24T00:58:42.440 ,3,0,0.,12.0,0.,12.0,0.,12.0,0.,12.0
1989-08-24T00:58:54.440 ,3,0,0.,12.0,0.,12.0,0.,12.0,0.,12.0
1989-08-24T00:59:06.440 ,3,0,0.,12.0,0.,12.0,0.,12.0,0.,12.0
1989-08-24T00:59:18.440 ,4,0,0.,12.0,0.,12.0,0.,12.0,0.,12.0
1989-08-24T00:59:30.440 ,4,0,0.,12.0,0.,12.0,0.,12.0,0.,12.0
1989-08-24T00:59:42.440 ,4,0,0.,12.0,0.,12.0,0.,12.0,0.,12.0
1989-08-24T00:59:54.440 ,4,0,0.,12.0,0.,12.0,0.,12.0,0.,12.0
1989-08-24T01:00:06.440 ,5,0,0.,12.0,0.,12.0,0.,12.0,0.,12.0
1989-08-24T01:00:18.440 ,5,0,0.,12.0,0.,12.0,0.,12.0,0.,12.0
1989-08-24T01:00:30.440 ,5,0,0.,12.0,0.,12.0,0.,12.0,0.,12.0
1989-08-24T01:00:42.440 ,5,0,0.,12.0,0.,12.0,0.,12.0,0.,12.0
1989-08-24T01:00:54.440 ,6,0,0.,12.0,0.,12.0,0.,12.0,0.,12.0
1989-08-24T01:01:06.440 ,6,0,0.,12.0,0.,12.0,0.,12.0,0.,12.0
1989-08-24T01:01:18.440 ,6,0,0.,12.0,0.,12.0,0.,12.0,0.,12.0
1989-08-24T01:01:30.440 ,6,0,0.,12.0,0.,12.0,0.,12.0,0.,12.0
1989-08-24T01:01:42.440 ,7,0,0.,12.0,0.,12.0,0.,12.0,0.,12.0
1989-08-24T01:01:54.440 ,7,0,0.,12.0,0.,12.0,0.,12.0,0.,12.0
1989-08-24T01:02:06.440 ,7,0,0.,12.0,0.,12.0,0.,12.0,0.,12.0
1989-08-24T01:02:18.440 ,7,0,0.,12.0,0.,12.0,0.,12.0,0.,12.0
1989-08-24T01:02:30.440 ,7,0,0.,12.0,0.,12.0,0.,12.0,0.,12.0
1989-08-24T01:02:42.440 ,7,0,0.,12.0,0.,12.0,0.,12.0,0.,12.0
1989-08-24T01:02:54.440 ,7,0,0.,12.0,0.,12.0,0.,12.0,0.,12.0
1989-08-24T01:03:06.440 ,7,0,0.,12.0,0.,12.0,0.,12.0,0.,12.0
1989-08-24T01:03:18.440 ,6,0,0.,12.0,0.,12.0,0.,12.0,0.,12.0
1989-08-24T01:03:30.440 ,6,0,0.,12.0,0.,12.0,0.,12.0,0.,12.0
1989-08-24T01:03:42.440 ,6,0,0.,12.0,0.,12.0,0.,12.0,0.,12.0
1989-08-24T01:03:54.440 ,6,0,0.,12.0,0.,12.0,0.,12.0,0.,12.0
1989-08-24T01:04:06.440 ,5,0,0.,12.0,0.,12.0,0.,12.0,0.,12.0
1989-08-24T01:04:18.440 ,5,0,0.,12.0,0.,12.0,0.,12.0,0.,12.0
1989-08-24T01:04:30.440 ,5,0,0.,12.0,0.,12.0,0.,12.0,0.,12.0
1989-08-24T01:04:42.440 ,5,0,0.,12.0,0.,12.0,0.,12.0,0.,12.0
1989-08-24T01:04:54.440 ,4,0,0.,12.0,0.,12.0,0.,12.0,0.,12.0
1989-08-24T01:05:06.440 ,4,0,0.,12.0,0.,12.0,0.,12.0,0.,12.0
1989-08-24T01:05:18.440 ,4,0,0.,12.0,0.,12.0,0.,12.0,0.,12.0
1989-08-24T01:05:30.440 ,4,0,0.,12.0,0.,12.0,0.,12.0,0.,12.0
1989-08-24T01:05:42.440 ,3,0,0.,12.0,0.,12.0,0.,12.0,0.,12.0
1989-08-24T01:05:54.440 ,3,0,0.,12.0,0.,12.0,0.,12.0,0.,12.0
1989-08-24T01:06:06.440 ,3,0,0.,12.0,0.,12.0,0.,12.0,0.,12.0
1989-08-24T01:06:18.440 ,3,0,0.,12.0,0.,12.0,0.,12.0,0.,12.0
1989-08-24T01:06:30.440 ,2,0,0.,12.0,0.,12.0,0.,12.0,0.,12.0
1989-08-24T01:06:42.440 ,2,0,0.,12.0,0.,12.0,0.,12.0,0.,12.0
1989-08-24T01:06:54.440 ,2,0,0.,12.0,0.,12.0,0.,12.0,0.,12.0
1989-08-24T01:07:06.440 ,2,0,0.,12.0,0.,12.0,0.,12.0,0.,12.0
1989-08-24T01:07:18.440 ,1,0,0.,12.0,0.,12.0,0.,12.0,0.,12.0
1989-08-24T01:07:30.440 ,1,0,0.,12.0,0.,12.0,0.,12.0,0.,12.0
1989-08-24T01:07:42.440 ,1,0,0.,12.0,0.,12.0,0.,12.0,0.,12.0
1989-08-24T01:07:54.440 ,1,0,0.,12.0,0.,12.0,0.,12.0,0.,12.0
1989-08-24T01:08:06.440 ,0,0,0.,12.0,0.,12.0,0.,12.0,0.,12.0
1989-08-24T01:08:18.440 ,0,0,0.,12.0,0.,12.0,0.,12.0,0.,12.0
1989-08-24T01:08:30.440 ,0,0,0.,12.0,0.,12.0,0.,12.0,0.,12.0
1989-08-24T01:08:42.440 ,0,0,0.,12.0,0.,12.0,0.,12.0,0.,12.0
1989-08-24T01:08:54.440 ,0,0,0.,12.0,0.,12.0,0.,12.0,0.,12.0
1989-08-24T01:09:06.440 ,0,0,0.,12.0,0.,12.0,0.,12.0,0.,12.0
1989-08-24T01:09:18.440 ,0,0,0.,12.0,0.,12.0,0.,12.0,0.,12.0
1989-08-24T01:09:30.440 ,0,0,0.,12.0,0.,12.0,0.,12.0,0.,12.0
1989-08-24T01:09:42.440 ,1,0,0.,12.0,0.,12.0,0.,12.0,0.,12.0
1989-08-24T01:09:54.440 ,1,0,0.,12.0,0.,12.0,0.,12.0,0.,12.0
1989-08-24T01:10:06.440 ,1,0,0.,12.0,0.,12.0,0.,12.0,0.,12.0
1989-08-24T01:10:18.440 ,1,0,0.,12.0,0.,12.0,0.,12.0,0.,12.0
1989-08-24T01:10:30.440 ,2,0,0.,12.0,0.,12.0,0.,12.0,0.,12.0
1989-08-24T01:10:42.440 ,2,0,0.,12.0,0.,12.0,0.,12.0,0.,12.0
1989-08-24T01:10:54.440 ,2,0,0.,12.0,0.,12.0,0.,12.0,0.,12.0
1989-08-24T01:11:06.440 ,2,0,0.,12.0,0.,12.0,0.,12.0,0.,12.0
1989-08-24T01:11:18.440 ,3,0,0.,12.0,0.,12.0,0.,12.0,0.,12.0
1989-08-24T01:11:30.440 ,3,0,0.,12.0,0.,12.0,0.,12.0,0.,12.0
1989-08-24T01:11:42.440 ,3,0,0.,12.0,0.,12.0,0.,12.0,0.,12.0
1989-08-24T01:11:54.440 ,3,0,0.,12.0,0.,12.0,0.,12.0,0.,12.0
1989-08-24T01:12:06.440 ,4,0,0.,12.0,0.,12.0,0.,12.0,0.,12.0
1989-08-24T01:12:18.440 ,4,0,0.,12.0,0.,12.0,0.,12.0,0.,12.0
1989-08-24T01:12:30.440 ,4,0,0.,12.0,0.,12.0,0.,12.0,0.,12.0
1989-08-24T01:12:42.440 ,4,0,0.,12.0,0.,12.0,0.,12.0,0.,12.0
1989-08-24T01:12:54.440 ,5,0,0.,12.0,0.,12.0,0.,12.0,0.,12.0
1989-08-24T01:13:06.440 ,5,0,0.,12.0,0.,12.0,0.,12.0,0.,12.0
1989-08-24T01:13:18.440 ,5,0,0.,12.0,0.,12.0,0.,12.0,0.,12.0
1989-08-24T01:13:30.440 ,5,0,0.,12.0,0.,12.0,0.,12.0,0.,12.0
1989-08-24T01:13:42.430 ,6,0,0.,12.0,0.,12.0,0.,12.0,0.,12.0
1989-08-24T01:13:54.430 ,6,0,0.,12.0,0.,12.0,0.,12.0,0.,12.0
1989-08-24T01:14:06.430 ,6,0,0.,12.0,0.,12.0,0.,12.0,0.,12.0
1989-08-24T01:14:18.430 ,6,0,0.,12.0,0.,12.0,0.,12.0,0.,12.0
1989-08-24T01:14:30.430 ,7,0,0.,12.0,0.,12.0,0.,12.0,0.,12.0
1989-08-24T01:14:42.430 ,7,0,0.,12.0,0.,12.0,0.,12.0,0.,12.0
1989-08-24T01:14:54.430 ,7,0,0.,12.0,0.,12.0,0.,12.0,0.,12.0
1989-08-24T01:15:06.430 ,7,0,0.,12.0,0.,12.0,0.,12.0,0.,12.0
1989-08-24T01:15:18.430 ,7,0,0.,12.0,0.,12.0,0.,12.0,0.,12.0
1989-08-24T01:15:30.430 ,7,0,0.,12.0,0.,12.0,0.,12.0,0.,12.0
1989-08-24T01:15:42.430 ,7,0,0.,12.0,0.,12.0,0.,12.0,0.,12.0
1989-08-24T01:15:54.430 ,7,0,0.,12.0,0.,12.0,0.,12.0,0.,12.0
1989-08-24T01:16:06.430 ,6,0,0.,12.0,0.,12.0,0.,12.0,0.,12.0
1989-08-24T01:16:18.430 ,6,0,0.,12.0,0.,12.0,0.,12.0,0.,12.0
1989-08-24T01:16:30.430 ,6,0,0.,12.0,0.,12.0,0.,12.0,0.,12.0
1989-08-24T01:16:42.430 ,6,0,0.,12.0,0.,12.0,0.,12.0,0.,12.0
1989-08-24T01:16:54.430 ,5,0,0.,12.0,0.,12.0,0.,12.0,0.,12.0
1989-08-24T01:17:06.440 ,5,0,0.,12.0,0.,12.0,0.,12.0,0.,12.0
1989-08-24T01:17:18.440 ,5,0,0.,12.0,0.,12.0,0.,12.0,0.,12.0
1989-08-24T01:17:30.440 ,5,0,0.,12.0,0.,12.0,0.,12.0,0.,12.0